Showing default

COSMOS 2513, 41121

Orbit data source: Space-Track

COSMOS 2513, 41121 is a payload satellite owned by VVKO VKS (CIS) in GEO that was launched on Sun, 13 Dec 2015 UTC via a PROTON-M/BRIZ-M launch vehicle from the Tyuratam Missile And Space Complex (TTMTR). Payload-class satellites include a variety of spacecraft equipped with specific instruments for various scientific and technological missions. These include communications satellites like Starlink; space stations such as the ISS; scientific satellites like the Hubble; Earth observation satellites from companies like Planet Labs, Umbra, and HawkEye 360; GPS; miniature CubeSats for education and research; and military/defense satellites.

Not visible in the next 10 days
Identifier
41121, 2015-075A
Orbit
GEO
Country
Flag of CISCIS
Related business
Manufacturer
Resehetnev ISS
Mission
Operational Defense Communications
Bus & Motor
EKSPRESS-2000?, AOCS
Mass
~2,500 kg wet, ~1,500 kg dry
Launch date (UTC)
2015-12-13 (11 years ago)
Launch vehicle
PROTON-M/BRIZ-M
Launch site
Tyuratam Missile And Space Complex (TTMTR)
Object type
Payload
Rocket body
Debris
Shape & HBR
Cyl + 2 Pan, 13.5 m
Radar Cross Section
24.423 m², Large (>1 m²)

Expand to show TLE details & history
Last TLE update: 17 hours ago

TLE from 17 hours ago
0 COSMOS 2513
1 41121U 15075A   26172.70878036 -.00000137  00000-0  00000+0 0  9995
2 41121   0.0745 100.2517 0003016 340.6809 164.3715  1.00266022 38594
Epoch: 2026-06-21T17:00Z
TLE epoch observation values (Epoch: 2026-06-21T17:00:38.623Z)
Latitude
0.02318°
Longitude
80.25793°
Altitude
35,799.99 km
Speed
3.074 km/s
True Right ascension
16h 21m 17s
True Declination
0° 01' 23"
Sunlit
Object was in daylight at epoch
Visualization orbit readout
Latitude
Unknown
Longitude
Unknown
Altitude
Unknown
Speed
Unknown
Apparent Right ascension
Unknown
Apparent Declination
Unknown
Sunlit
N/A
Visualization observer readout
Local Sidereal Time
21:25:40
Azimuth
Unknown
Elevation
Unknown
Doppler factor
Unknown
Orbital elements
Apogee altitude
35,801.999 km
Perigee altitude
35,776.563 km
Semi-major axis
42,167.418 km
Eccentricity
0.0003
Inclination
0.0745°
RAAN
100.2517°
Arg. of periapsis
340.6809°
True anomaly
164.38081°
Mean anomaly
164.3715°
Eccentric anomaly
164.37615°
Mean motion
0.25066 °/min
Orbital period
1,436.23 mins
BSTAR
0
Loading maneuver chart data...
Computing Atmospheric mass density...
Loading historical data...
Loading historical data...
Loading historical data...
Loading historical data...
Loading historical data...
Loading historical data...
Loading historical data...

Documentation

Showing up to 5 results
|